Regional Weather Roundup
Issued by NWS Little Rock, AR

Home | Current Version | Previous Version | Text Only | Print | Product List | Glossary On
Versions: 1 2 3 4 5 6 7 8 9 10 11 12 13 14 15 16 17 18 19 20 21 22 23 24 25 26 27 28 29 30 31 32 33 34 35 36 37 38 39 40 41 42 43 44 45 46 47 48 49 50
000
ASUS44 KLZK 120405
RWRLZK

WEATHER ROUNDUP FOR ARKANSAS
NATIONAL WEATHER SERVICE LITTLE ROCK AR
1000 PM CST THU FEB 11 2016

NOTE: "FAIR" INDICATES FEW OR NO CLOUDS BELOW 12,000 FEET WITH NO
SIGNIFICANT WEATHER AND/OR OBSTRUCTIONS TO VISIBILITY.

ARZ001-003-010-029-120500-
NORTHWEST ARKANSAS

CITY           SKY/WX    TMP DP  RH WIND       PRES   REMARKS
FAYETTEVILLE   CLOUDY    37  28  70 S3        30.16F
FORT SMITH     PTCLDY    44  28  53 NE7       30.18R
HARRISON       CLOUDY    39  22  50 SE3       30.17S
BENTONVILLE    CLOUDY    41  23  48 CALM      30.16F
ROGERS         CLOUDY    41  25  53 SE3       30.15F
SILOAM SPGS    PTCLDY    39  21  48 SE3       30.15F
HIGHFILL       PTCLDY    39  26  59 CALM      30.14F
$$

ARZ004-005-016-120500-
NORTH CENTRAL ARKANSAS

CITY           SKY/WX    TMP DP  RH WIND       PRES   REMARKS
BATESVILLE     PTCLDY    37  21  52 E5        30.24S
FLIPPIN        CLOUDY    39  19  45 SE5       30.17F
MTN HOME       CLOUDY    38  22  52 SE6       30.18F
$$

ARZ040-041-120500-
WEST CENTRAL ARKANSAS

CITY           SKY/WX    TMP DP  RH WIND       PRES   REMARKS
MENA           CLEAR     41  32  70 CALM      30.17R
MOUNT IDA      MOCLDY    45  28  51 CALM      30.16R
$$

ARZ009-017-025-026-028-120500-
NORTHEAST ARKANSAS

CITY           SKY/WX    TMP DP  RH WIND       PRES   REMARKS
JONESBORO      CLOUDY    35  26  69 NE9       30.24F WCI  28
NEWPORT        CLOUDY    35  26  70 NE7       30.24F WCI  29
WALNUT RIDGE   CLOUDY    36  21  55 SE6       30.23F
BLYTHEVILLE    CLOUDY    38  27  64 NE9       30.25R
$$

ARZ022-023-033-042-044-120500-
CENTRAL ARKANSAS

CITY           SKY/WX    TMP DP  RH WIND       PRES   REMARKS
LITTLE ROCK    CLOUDY    41  26  55 NE9       30.23R
N LITTLE ROCK  MOCLDY    40  28  61 NE8       30.23R
JACKSONVILLE   CLOUDY    40  26  56 NE6       30.21R
SEARCY         CLOUDY    37  27  65 NE7       30.24S
HOT SPRINGS    MOCLDY    43  26  51 E3        30.19R
RUSSELLVILLE   CLEAR     42  24  49 CALM      30.21R
CLINTON        FAIR      37  27  65 CALM      30.22F
$$

ARZ036-120500-
EAST ARKANSAS

CITY           SKY/WX    TMP DP  RH WIND       PRES   REMARKS
WEST MEMPHIS   CLOUDY    40  27  59 NE8       30.20F
$$

ARZ050-053-066-070-073-120500-
SOUTHWEST ARKANSAS

CITY           SKY/WX    TMP DP  RH WIND       PRES   REMARKS
ARKADELPHIA    FAIR      43  28  55 NE3       30.21R
CAMDEN         CLEAR     41  28  60 CALM      30.18F
TEXARKANA      CLEAR     48  32  53 VRB6      30.16R
EL DORADO      CLEAR     44  31  60 NE6       30.17S
DE QUEEN       CLEAR     47  31  53 E5        30.16R
$$

ARZ056-057-069-120500-
SOUTHEAST ARKANSAS

CITY           SKY/WX    TMP DP  RH WIND       PRES   REMARKS
PINE BLUFF     MOCLDY    38  28  67 N7        30.19F
STUTTGART      CLOUDY    39  27  60 N13       30.21R
MONTICELLO     PTCLDY    44  30  57 NE7       30.17F

$$





USA.gov is the U.S. government's official web portal to all federal, state and local government web resources and services.